• En España
  • Catálogo de los países
  • Para 7 días
  • Temperatura del agua
  • Satélites
  • Mapas de tiempo
  • Reproductores
  • user-avatar
    Entrar

    Situación metereológica por horas en Meppel

    Hoy, 29 Junio, Miércoles

    hora temperatura Precipitaciones Viento Presión Humedad
    00:00 +15°C° 0 mm 2 m/s 756 mmHg 96%
    01:00 +15°C° 0,4 mm 2 m/s 756 mmHg 96%
    02:00 +13°C° 0,4 mm 3 m/s 755 mmHg 96%
    03:00 +13°C° 0,4 mm 3 m/s 755 mmHg 96%
    04:00 +13°C° 0,1 mm 4 m/s 755 mmHg 94%
    05:00 +14°C° 0,1 mm 5 m/s 755 mmHg 92%
    06:00 +15°C° 0 mm 5 m/s 756 mmHg 90%
    07:00 +15°C° 0,2 mm 5 m/s 756 mmHg 88%
    08:00 +16°C° 0,2 mm 6 m/s 757 mmHg 87%
    09:00 +16°C° 0,2 mm 7 m/s 757 mmHg 85%
    10:00 +17°C° 0,2 mm 7 m/s 757 mmHg 81%
    11:00 +17°C° 0,2 mm 7 m/s 757 mmHg 78%
    12:00 +18°C° 0,2 mm 7 m/s 757 mmHg 75%
    13:00 +18°C° 0,1 mm 7 m/s 757 mmHg 71%
    14:00 +20°C° 0,1 mm 6 m/s 757 mmHg 68%
    15:00 +20°C° 0,1 mm 6 m/s 757 mmHg 64%
    16:00 +19°C° 0,1 mm 6 m/s 757 mmHg 70%
    17:00 +19°C° 0,1 mm 5 m/s 757 mmHg 75%
    18:00 +18°C° 0,1 mm 4 m/s 757 mmHg 81%
    19:00 +17°C° 0,3 mm 4 m/s 757 mmHg 85%
    20:00 +15°C° 0,3 mm 4 m/s 757 mmHg 89%
    21:00 +14°C° 0,3 mm 4 m/s 757 mmHg 93%
    22:00 +14°C° 0,1 mm 5 m/s 757 mmHg 93%
    23:00 +14°C° 0,1 mm 5 m/s 757 mmHg 93%

    Mañana, 30 Junio, Jueves

    hora temperatura Precipitaciones Viento Presión Humedad
    00:00 +14°C° 0,1 mm 6 m/s 757 mmHg 93%
    01:00 +13°C° 0,1 mm 6 m/s 756 mmHg 93%
    02:00 +13°C° 0,1 mm 6 m/s 756 mmHg 94%
    03:00 +13°C° 0,1 mm 6 m/s 756 mmHg 94%
    04:00 +13°C° 0,2 mm 6 m/s 756 mmHg 94%
    05:00 +14°C° 0,2 mm 6 m/s 756 mmHg 94%
    06:00 +14°C° 0,2 mm 6 m/s 756 mmHg 93%
    07:00 +15°C° 0,3 mm 7 m/s 756 mmHg 93%
    08:00 +15°C° 0,3 mm 7 m/s 756 mmHg 92%
    09:00 +16°C° 0,3 mm 7 m/s 757 mmHg 91%
    10:00 +16°C° 0,3 mm 7 m/s 757 mmHg 91%
    11:00 +17°C° 0,3 mm 7 m/s 757 mmHg 90%
    12:00 +17°C° 0,3 mm 7 m/s 757 mmHg 89%
    13:00 +17°C° 0,3 mm 6 m/s 757 mmHg 90%
    14:00 +17°C° 0,3 mm 6 m/s 757 mmHg 90%
    15:00 +17°C° 0,3 mm 6 m/s 757 mmHg 90%
    16:00 +17°C° 0,1 mm 5 m/s 758 mmHg 89%
    17:00 +18°C° 0,1 mm 4 m/s 758 mmHg 89%
    18:00 +18°C° 0,1 mm 3 m/s 758 mmHg 88%
    19:00 +17°C° 0,1 mm 3 m/s 758 mmHg 90%
    20:00 +16°C° 0,1 mm 3 m/s 758 mmHg 92%
    21:00 +15°C° 0,1 mm 2 m/s 758 mmHg 94%
    22:00 +14°C° 0 mm 3 m/s 758 mmHg 95%
    23:00 +14°C° 0 mm 3 m/s 758 mmHg 96%

    Pasado mañana, 1 Julio, Viernes

    hora temperatura Precipitaciones Viento Presión Humedad
    00:00 +14°C° 0 mm 3 m/s 758 mmHg 96%
    01:00 +14°C° 0 mm 4 m/s 758 mmHg 97%
    02:00 +14°C° 0 mm 4 m/s 757 mmHg 97%
    03:00 +14°C° 0 mm 5 m/s 757 mmHg 97%
    04:00 +14°C° 0 mm 6 m/s 757 mmHg 95%
    05:00 +15°C° 0 mm 6 m/s 757 mmHg 93%
    06:00 +15°C° 0 mm 7 m/s 758 mmHg 92%
    07:00 +16°C° 0,1 mm 7 m/s 758 mmHg 90%
    08:00 +16°C° 0,1 mm 7 m/s 758 mmHg 89%
    09:00 +16°C° 0,1 mm 7 m/s 758 mmHg 88%
    10:00 +17°C° 0,2 mm 7 m/s 758 mmHg 87%
    11:00 +17°C° 0,2 mm 7 m/s 759 mmHg 86%
    12:00 +18°C° 0,2 mm 7 m/s 759 mmHg 85%
    13:00 +19°C° 0,2 mm 6 m/s 759 mmHg 85%
    14:00 +19°C° 0,2 mm 6 m/s 759 mmHg 85%
    15:00 +19°C° 0,2 mm 6 m/s 759 mmHg 85%
    16:00 +19°C° 0,1 mm 5 m/s 759 mmHg 85%
    17:00 +19°C° 0,1 mm 5 m/s 759 mmHg 85%
    18:00 +19°C° 0,1 mm 4 m/s 759 mmHg 86%
    19:00 +18°C° 0 mm 4 m/s 759 mmHg 89%
    20:00 +17°C° 0 mm 4 m/s 759 mmHg 91%
    21:00 +16°C° 0 mm 3 m/s 759 mmHg 94%
    22:00 +15°C° 0,2 mm 4 m/s 758 mmHg 94%
    23:00 +15°C° 0,2 mm 4 m/s 758 mmHg 94%

    2 Julio, Sábado

    hora temperatura Precipitaciones Viento Presión Humedad
    00:00 +15°C° 0,2 mm 5 m/s 758 mmHg 95%
    01:00 +15°C° 0,7 mm 5 m/s 757 mmHg 95%
    02:00 +15°C° 0,7 mm 5 m/s 757 mmHg 95%
    03:00 +15°C° 0,7 mm 4 m/s 757 mmHg 95%
    04:00 +15°C° 0,3 mm 5 m/s 757 mmHg 94%
    05:00 +14°C° 0,3 mm 5 m/s 757 mmHg 93%
    06:00 +14°C° 0,3 mm 5 m/s 758 mmHg 91%
    07:00 +15°C° 0,1 mm 5 m/s 758 mmHg 85%
    08:00 +16°C° 0,1 mm 6 m/s 758 mmHg 78%
    09:00 +16°C° 0,1 mm 6 m/s 759 mmHg 72%
    10:00 +17°C° 0,1 mm 6 m/s 759 mmHg 69%
    11:00 +17°C° 0,1 mm 7 m/s 760 mmHg 67%
    12:00 +17°C° 0,1 mm 7 m/s 760 mmHg 64%
    13:00 +17°C° 0,1 mm 6 m/s 760 mmHg 64%
    14:00 +17°C° 0,1 mm 6 m/s 760 mmHg 64%
    15:00 +17°C° 0,1 mm 6 m/s 761 mmHg 63%
    16:00 +17°C° 0 mm 5 m/s 761 mmHg 67%
    17:00 +17°C° 0 mm 4 m/s 761 mmHg 71%
    18:00 +17°C° 0 mm 4 m/s 761 mmHg 74%
    19:00 +14°C° 0 mm 3 m/s 762 mmHg 78%
    20:00 +13°C° 0 mm 3 m/s 762 mmHg 82%
    21:00 +11°C° 0 mm 3 m/s 762 mmHg 85%
    22:00 +11°C° 0 mm 3 m/s 763 mmHg 87%
    23:00 +11°C° 0 mm 4 m/s 763 mmHg 88%

    3 Julio, Domingo

    hora temperatura Precipitaciones Viento Presión Humedad
    00:00 +10°C° 0 mm 4 m/s 763 mmHg 90%
    01:00 +10°C° 0 mm 4 m/s 763 mmHg 91%
    02:00 +10°C° 0 mm 4 m/s 763 mmHg 92%
    03:00 +10°C° 0 mm 4 m/s 763 mmHg 93%
    04:00 +11°C° 0 mm 4 m/s 764 mmHg 91%
    05:00 +13°C° 0 mm 4 m/s 764 mmHg 88%
    06:00 +14°C° 0 mm 5 m/s 764 mmHg 85%
    07:00 +15°C° 0,1 mm 5 m/s 764 mmHg 81%
    08:00 +16°C° 0,1 mm 5 m/s 764 mmHg 78%
    09:00 +17°C° 0,1 mm 5 m/s 765 mmHg 74%
    10:00 +19°C° 0,3 mm 6 m/s 765 mmHg 72%
    11:00 +19°C° 0,3 mm 6 m/s 764 mmHg 70%
    12:00 +20°C° 0,3 mm 6 m/s 764 mmHg 68%
    13:00 +20°C° 0,2 mm 6 m/s 764 mmHg 68%
    14:00 +20°C° 0,2 mm 6 m/s 764 mmHg 68%
    15:00 +20°C° 0,2 mm 6 m/s 764 mmHg 68%
    16:00 +19°C° 0,1 mm 5 m/s 764 mmHg 74%
    17:00 +17°C° 0,1 mm 5 m/s 764 mmHg 79%
    18:00 +17°C° 0,1 mm 4 m/s 764 mmHg 84%
    19:00 +15°C° 0 mm 4 m/s 764 mmHg 86%
    20:00 +15°C° 0 mm 4 m/s 764 mmHg 87%
    21:00 +14°C° 0 mm 5 m/s 764 mmHg 89%
    22:00 +14°C° 0,1 mm 5 m/s 763 mmHg 91%
    23:00 +15°C° 0,1 mm 5 m/s 763 mmHg 92%

    4 Julio, Lunes

    hora temperatura Precipitaciones Viento Presión Humedad
    00:00 +15°C° 0,1 mm 6 m/s 763 mmHg 94%
    01:00 +15°C° 0,1 mm 6 m/s 762 mmHg 94%
    02:00 +15°C° 0,1 mm 6 m/s 762 mmHg 94%
    03:00 +15°C° 0,1 mm 6 m/s 762 mmHg 95%
    04:00 +16°C° 0,1 mm 6 m/s 762 mmHg 94%
    05:00 +16°C° 0,1 mm 6 m/s 762 mmHg 94%
    06:00 +16°C° 0,1 mm 6 m/s 762 mmHg 94%
    07:00 +16°C° 0,1 mm 6 m/s 762 mmHg 93%
    08:00 +16°C° 0,1 mm 6 m/s 763 mmHg 93%
    09:00 +17°C° 0,1 mm 7 m/s 763 mmHg 92%
    10:00 +17°C° 0,1 mm 7 m/s 763 mmHg 89%
    11:00 +18°C° 0,1 mm 7 m/s 762 mmHg 86%
    12:00 +20°C° 0,1 mm 7 m/s 762 mmHg 84%
    13:00 +20°C° 0,1 mm 7 m/s 762 mmHg 82%
    14:00 +20°C° 0,1 mm 7 m/s 762 mmHg 81%
    15:00 +21°C° 0,1 mm 7 m/s 762 mmHg 80%
    16:00 +20°C° 0,1 mm 6 m/s 762 mmHg 81%
    17:00 +20°C° 0,1 mm 6 m/s 762 mmHg 82%
    18:00 +20°C° 0,1 mm 5 m/s 762 mmHg 84%
    19:00 +17°C° 0 mm 5 m/s 762 mmHg 87%
    20:00 +17°C° 0 mm 4 m/s 762 mmHg 91%
    21:00 +15°C° 0 mm 4 m/s 762 mmHg 94%
    22:00 +15°C° 0 mm 4 m/s 762 mmHg 95%
    23:00 +15°C° 0 mm 4 m/s 762 mmHg 95%
    Mostrar más